Location: *
(62.2411°N, 25.7465°E)
Time: 12:22:49
(UTC+00:00)

Daily predictions for brighter satellites

Satellite Brightness Start Highest point End
(mag) Time Altitude Azimuth Time Altitude Azimuth Time Altitude Azimuth
USA 238 DEB 3.8 14:05:40 10° W 14:12:38 81° N 14:19:53 10° E
USA 238 3.8 14:05:46 10° W 14:12:43 81° N 14:19:58 10° E
ALOS 2.3 14:09:21 10° SSE 14:14:01 80° ENE 14:18:44 10° NNW
ATLAS 3B R/B 2.7 14:08:10 10° WSW 14:14:52 85° NNW 14:21:36 10° ENE
Meteor 1-28 Rocket 3.8 14:11:32 10° NNE 14:15:02 37° E 14:18:30 10° SSE
Cosmos 2297 Rocket 2.5 14:09:42 10° NW 14:15:23 76° SW 14:21:02 10° SSE
Cosmos 1666 Rocket 4.4 14:12:07 10° N 14:15:59 29° ENE 14:19:47 10° ESE
Cosmos 2227 Rocket 2.5 14:10:17 10° NW 14:16:00 79° SW 14:21:40 10° SE
Cosmos 1814 Rocket 4.2 14:10:50 10° SW 14:16:13 82° NW 14:21:37 10° NE
Cosmos 1452 Rocket 4.4 14:11:54 10° NW 14:16:36 30° NNE 14:21:16 10° E
NOSS 3-2 (A) 3.8 14:10:09 10° W 14:16:42 81° N 14:24:20 10° E
EP 1 4.3 14:14:19 10° WSW 14:16:54 85° SSE 14:19:48 10° ENE
SAR-Lupe-1 4.1 14:13:36 10° NNE 14:17:15 88° ESE 14:20:52 10° SSW
Okean O Rocket 1.6 14:14:08 10° SSE 14:18:31 79° ENE 14:22:54 10° NNW
Cosmos 841 Rocket 3.7 14:13:15 10° SW 14:18:33 78° NW 14:23:52 10° NE
Cosmos 2344 4.3 14:12:01 10° S 14:18:54 40° SE 14:26:50 10° ENE
SMAP 3.4 14:14:39 10° SE 14:19:02 42° ENE 14:23:27 10° NNW
Cosmos 1943 Rocket 2.4 14:13:26 10° SW 14:19:07 79° NW 14:24:52 10° NE
Cosmos 1371 Rocket 4.3 14:14:13 10° NW 14:19:16 46° NE 14:24:17 10° ESE
Cosmos 1455 2.4 14:15:49 10° S 14:19:27 50° E 14:23:07 10° NNE
Cosmos 1725 Rocket 4.1 14:14:46 10° NNW 14:21:10 89° ENE 14:27:30 10° SSE
Cosmos 2016 Rocket 4.3 14:15:26 10° NNW 14:21:51 80° W 14:28:13 10° S
Cosmos 44 Rocket 3.4 14:18:20 10° W 14:23:10 69° NNW 14:27:55 10° ENE
Cosmos 1727 Rocket 4.2 14:17:01 10° SSW 14:23:17 80° WNW 14:29:39 10° NNE
Cosmos 2123 Rocket 4.2 14:17:35 10° SSE 14:23:32 51° E 14:29:29 10° NNE
Feng Yun 1-1 Rocket 4.3 14:19:17 10° SE 14:24:38 55° ENE 14:29:56 10° NNW
Cosmos 540 Rocket 3.6 14:23:13 10° SW 14:28:24 78° NW 14:33:36 10° NE
CZ-4C R/B 3.0 14:26:33 10° NNE 14:30:04 81° WNW 14:33:27 10° SSW
CZ-2C R/B 4.4 14:25:23 10° SSW 14:30:05 35° W 14:34:44 10° NNW
Cosmos 1633 3.3 14:27:37 10° N 14:30:57 31° ENE 14:34:16 10° SE
NOAA 12 4.5 14:26:27 10° SE 14:31:27 42° NE 14:36:27 10° NNW
Cosmos 2221 3.3 14:27:56 10° SSE 14:31:51 34° E 14:35:49 10° NNE
Cosmos 2263 Rocket 2.5 14:26:35 10° NW 14:32:00 48° NNE 14:37:24 10° ESE
NOAA 6 4.2 14:27:23 10° SSE 14:32:34 84° WSW 14:37:46 10° NNW
Landsat 5 3.2 14:29:26 10° NNE 14:33:21 81° ESE 14:37:12 10° SSW
SL-08 R/B 3.6 14:29:13 10° NNE 14:34:10 81° WNW 14:39:09 10° SSW
Cosmos 1484 Rocket 3.8 14:32:12 10° S 14:36:00 51° W 14:39:53 10° NNW
Cosmos 1900 4.4 14:31:51 10° SW 14:36:53 84° SSE 14:41:47 10° ENE
ATLAS 5 CENTAUR R/B 4.0 14:33:11 10° WNW 14:38:08 37° SW 14:43:47 10° SSE
AQUARIUS 4.3 14:34:25 10° SE 14:38:46 51° ENE 14:43:08 10° NNW
Cosmos 1689 Rocket 2.7 14:39:42 10° NNE 14:42:36 37° E 14:45:29 10° S
Cosmos-2242 3.2 14:38:38 10° SSW 14:42:53 72° WNW 14:47:10 10° NNE
Cosmos 1340 Rocket 2.8 14:41:51 10° S 14:45:55 76° ESE 14:50:01 10° NNE
Cosmos 2082 4.0 14:41:19 10° NW 14:46:58 75° SW 14:52:35 10° SSE
Cosmos 1470 Rocket 4.4 14:43:17 10° N 14:47:15 29° ENE 14:51:11 10° ESE
Cosmos 1656 Rocket 3.6 14:43:58 10° SW 14:49:28 86° SE 14:54:57 10° NE
FENGYUN 3A 4.3 14:44:11 10° S 14:49:35 64° WSW 14:55:02 10° NNW
Cosmos 1869 4.3 14:47:46 10° SE 14:51:04 26° E 14:54:22 10° NNE
Ariane Rocket 4.1 14:47:50 10° E 14:51:47 23° NE 14:55:44 10° N
Helios 1A Rocket 3.7 14:48:48 10° S 14:52:54 57° WSW 14:57:01 10° NNW
YAOGAN 1 3.5 14:50:42 10° ESE 14:54:21 27° NE 14:58:02 10° N
H-2A R/B 2.8 14:50:52 10° SE 14:54:36 55° ENE 14:58:19 10° N
SL-16 R/B 3.4 14:49:10 10° NNE 14:55:06 48° NW 15:00:59 10° SW
Cosmos 1238 Rocket 3.1 14:51:17 10° NNW 14:55:55 76° W 14:59:42 10° S
Cosmos 1697 Rocket 4.2 14:52:44 10° SE 14:56:17 17° E 14:58:53 13° ENE
CZ-4B R/B 1.4 14:57:42 10° NNE 15:01:04 88° ESE 15:04:30 10° SSW
FengYun 1-2 T 4.4 14:56:48 10° SE 15:02:02 47° ENE 15:07:17 10° NNW
NOSS 3-2 (C) 3.8 14:55:48 10° W 15:02:25 82° N 15:09:52 11° E
CZ-4B R/B 4.0 14:57:35 10° S 15:02:46 55° WSW 15:08:01 10° NNW
Cosmos 1842 Rocket 3.6 14:59:27 10° S 15:03:55 71° E 15:08:22 10° NNE
H-2A R/B 3.2 15:00:01 10° N 15:04:04 40° WNW 15:08:01 10° SW
USA 215 3.7 14:59:20 10° E 15:05:47 58° S 15:12:14 10° WSW
Cosmos 1825 4.2 15:04:45 10° NNW 15:08:08 31° W 15:11:32 10° SSW
Cosmos 1624 Rocket 4.0 15:04:35 10° NW 15:09:58 71° NE 15:15:19 10° SE
Cosmos 2056 Rocket 3.4 15:05:54 10° NW 15:11:03 70° NE 15:16:13 10° SE
Cosmos 2034 Rocket 4.1 15:05:07 10° NNW 15:11:24 56° ENE 15:17:39 10° SE
PSLV R/B 4.4 15:08:23 10° NNE 15:12:27 42° E 15:16:28 10° S
Cosmos 1805 Rocket 3.6 15:08:13 10° NNW 15:12:37 84° WSW 15:17:00 10° S
Cosmos 1844 Rocket 3.3 15:08:56 10° NW 15:14:11 39° NNE 15:18:11 16° E
Cosmos 1356 Rocket 4.1 15:11:46 10° SSE 15:15:37 35° E 15:19:25 11° NNE
Aureole 2 Rocket 3.3 15:13:05 10° WSW 15:16:33 47° NW 15:19:44 12° NNE
IRS-1C Rocket 4.3 15:11:15 10° SSE 15:16:33 77° WSW 15:21:53 10° NNW
USA 229 DEB 4.4 15:12:05 10° S 15:18:00 35° SE 15:22:38 17° ENE
USA 229 4.4 15:12:12 10° S 15:18:06 35° SE 15:22:42 17° ENE
YAOGAN 6 3.0 15:14:53 10° SE 15:18:07 36° ENE 15:21:23 10° N
Cosmos 2227 4.2 15:12:37 10° NW 15:18:26 77° NE 15:24:14 10° SE
Cosmos 2278 Rocket 3.1 15:13:21 10° WNW 15:18:33 35° N 15:22:24 17° ENE
Cosmos 44 3.0 15:15:47 10° WNW 15:20:16 70° NNE 15:23:38 17° E
ASTEX 1 3.4 15:15:45 10° N 15:20:49 89° WNW 15:25:49 10° S
NOSS 3-1 (C) 4.3 15:16:16 10° S 15:21:22 32° SE 15:25:22 17° ENE
Cosmos 1867 3.8 15:19:25 10° SW 15:24:45 55° SE 15:28:35 19° ENE
H-2A R/B 3.3 15:24:15 18° ENE 15:26:05 22° NE 15:29:58 10° N
Cosmos 1538 Rocket 4.4 15:21:46 10° S 15:26:50 46° ESE 15:30:58 15° NE
Meteor 1-27 4.2 15:21:46 10° S 15:27:28 74° ESE 15:33:17 10° NNE
Cosmos 1634 Rocket 4.3 15:22:47 10° N 15:28:39 41° ENE 15:34:27 10° SE
CZ-4 R/B 1.6 15:26:29 10° SE 15:30:25 48° ENE 15:34:18 10° N
Meteor 2-10 Rocket 3.7 15:27:17 10° SSW 15:32:20 72° WNW 15:37:35 10° NNE
SeaSat 1 2.7 15:27:26 10° SE 15:32:23 74° SW 15:37:22 10° NW
Lacrosse 4 Rocket 2.7 15:30:13 10° SSE 15:33:16 21° ESE 15:33:54 20° ESE
Okean-O 2.6 15:29:33 10° SSE 15:34:00 88° ENE 15:38:30 10° NNW
Meteor 2-20 4.4 15:29:58 10° S 15:36:03 65° E 15:42:10 10° NNE
NOAA 11 4.5 15:31:01 10° SE 15:36:08 45° ENE 15:41:19 10° NNW
CSL-04 Debris 4.2 15:30:46 10° SE 15:36:09 57° ENE 15:41:31 10° NNW
Cosmos 1939 Rocket 3.6 15:33:28 15° ESE 15:36:15 32° ENE 15:39:56 10° N
Cosmos 371 Rocket 4.1 15:34:15 10° NNW 15:38:40 33° NNE 15:40:42 24° ENE
Cosmos 1633 Rocket 3.0 15:34:38 10° NNW 15:39:05 86° ENE 15:43:32 10° SSE
Cosmos 1862 3.3 15:37:51 10° NNW 15:41:52 84° WSW 15:45:52 10° S
Meteor 1-20 Rocket 4.5 15:37:52 10° NNW 15:43:37 50° ENE 15:49:17 10° SE
Meteor 1-25 Rocket 4.4 15:38:17 10° NNW 15:43:48 50° ENE 15:49:21 10° SE
CENTAUR R/B 3.0 15:36:45 10° W 15:43:53 83° N 15:50:02 19° E
Cosmos 1844 4.2 15:39:02 10° NW 15:44:36 44° NNE 15:47:45 24° E
CZ-4 R/B 4.4 15:40:36 10° SSE 15:44:43 65° ENE 15:48:53 10° NNW
Sich 1 3.6 15:40:43 10° NNW 15:45:01 62° W 15:49:21 10° S
Timation 1 Rocket 4.3 15:40:34 10° NW 15:46:36 86° NE 15:52:37 10° SE
Cosmos 2279 Rocket 4.5 15:41:17 10° N 15:47:03 38° ENE 15:52:20 12° ESE
Envisat 3.0 15:42:03 10° SSE 15:47:10 89° ENE 15:52:18 10° NNW
Cosmos 1447 Rocket 4.5 15:41:00 10° S 15:47:18 85° ESE 15:53:41 10° NNE
Cosmos 2369 Rocket 3.0 15:42:27 10° W 15:47:49 44° NNW 15:51:46 18° NE
CSL-04 Rocket 3.6 15:43:11 10° SE 15:48:27 65° ENE 15:53:42 10° NNW
EP 3 4.2 15:49:03 10° W 15:51:26 68° N 15:51:50 55° NE
Resurs 01 Rocket 3.5 15:53:07 15° NNE 15:53:07 15° NNE 15:54:56 10° N
Cosmos 1420 Rocket 3.9 15:47:13 10° NW 15:52:27 73° NE 15:57:38 10° SE
Cosmos 1151 Rocket 3.7 15:48:56 10° SSE 15:52:52 33° E 15:54:02 28° ENE
Cosmos 1666 Rocket 4.0 15:49:51 10° NNW 15:54:14 66° W 15:58:32 10° S
Cosmos 1933 Rocket 3.5 15:50:55 10° NNW 15:55:15 62° ENE 15:59:34 10° SSE
Cosmos 1455 4.1 15:52:00 10° WSW 15:55:18 29° WNW 15:58:38 10° N
Okean O Rocket 4.2 15:51:52 10° SW 15:55:23 23° W 15:58:55 10° NW
SMAP 4.1 15:51:53 10° S 15:56:24 48° W 16:00:57 10° NNW
COSMO-SKYMED 1 3.3 15:56:45 31° E 15:57:05 31° E 16:00:59 10° SSE
Cosmos 1464 Rocket 4.2 15:51:21 10° NNW 15:57:32 75° W 16:03:38 10° S
CZ-2C R/B 4.2 15:58:29 22° NE 15:58:32 22° NE 16:02:18 10° N
Meteor 2-2 Rocket 4.2 15:53:36 10° SSW 15:59:24 88° ESE 16:05:08 10° NNE
Cosmos 1452 Rocket 3.5 15:54:17 10° NW 15:59:36 70° NE 16:04:13 14° SE
COBE Rocket 3.8 15:55:39 10° NNE 16:00:26 58° E 16:05:06 10° S
Cosmos 1980 Rocket 3.1 15:57:13 10° SSE 16:01:50 26° ESE 16:02:11 26° E
Cosmos 1328 Rocket 3.9 15:58:10 10° SSE 16:02:18 41° E 16:03:52 29° NE
OPS 6432 4.0 15:59:41 10° W 16:02:38 71° N 16:03:04 57° ENE
Cosmos 1943 Rocket 3.1 15:58:15 10° W 16:03:36 40° NNW 16:07:04 20° NE
GB2 4.5 16:00:38 10° WSW 16:03:49 80° SSE 16:04:15 61° E
USA 238 DEB 3.8 15:56:47 10° WNW 16:03:50 81° SSW 16:09:31 18° ESE
USA 238 3.8 15:56:54 10° WNW 16:03:56 81° SSW 16:09:36 18° ESE
EP 1 4.4 16:01:37 10° W 16:04:20 72° N 16:04:39 63° ENE
Cosmos 44 Rocket 3.3 16:00:19 10° WNW 16:05:07 65° N 16:07:01 35° E
ATLAS 3B R/B 2.6 15:59:12 10° WNW 16:05:53 81° N 16:09:47 27° E
Cosmos 1633 3.9 16:02:26 10° NNW 16:05:56 42° W 16:09:24 10° SSW
NOSS 3-2 (A) 3.9 16:01:01 10° WNW 16:07:53 83° SSW 16:13:48 19° ESE
NOSS 7 (D) 4.0 16:05:38 10° WSW 16:08:15 61° S 16:08:15 61° S
Cosmos 2221 3.4 16:05:04 10° SW 16:09:19 51° WNW 16:13:38 10° N
CZ-2D R/B 3.3 16:08:03 29° SE 16:09:45 54° ENE 16:13:33 10° N
Cosmos 1689 Rocket 4.1 16:11:20 10° N 16:13:56 28° WNW 16:16:36 10° WSW
Meteor 1-14 Rocket 4.4 16:09:57 10° NNW 16:15:53 59° ENE 16:21:49 10° SE
Cosmos 2263 Rocket 2.3 16:10:43 10° NW 16:16:19 74° SW 16:21:52 10° SSE
Meteor 1-11 Rocket 4.5 16:11:27 10° NNW 16:16:40 33° NE 16:17:30 32° ENE
NOSS 5 (C) 3.9 16:14:32 10° WSW 16:17:40 88° NNW 16:17:44 86° NE
IRS-1A Rocket 4.3 16:14:05 14° SE 16:18:57 60° ENE 16:24:42 10° NNW
Genesis I 3.2 16:15:41 10° SW 16:19:41 75° SSE 16:20:28 54° E
Cosmos 1340 4.2 16:16:47 10° N 16:18:41 23° NNE 16:18:41 23° NNE
Cosmos 2112 Rocket 4.3 16:19:14 10° S 16:24:09 43° ESE 16:24:58 40° E
Cosmos 1470 Rocket 3.9 16:21:02 10° NNW 16:25:32 68° W 16:30:00 10° S
SWAS 4.4 16:21:46 10° NW 16:26:09 88° SW 16:27:44 39° SE
Cosmos 1869 3.8 16:23:12 10° SSW 16:27:05 57° WNW 16:30:25 14° N
Cosmos 1680 Rocket 3.6 16:24:52 10° S 16:29:55 52° ESE 16:31:08 43° ENE
Ariane Rocket 2.9 16:26:31 20° SE 16:30:04 68° ENE 16:35:09 10° NNW
YAOGAN 1 2.7 16:25:49 10° SSE 16:30:09 76° WSW 16:34:31 10° NNW
Cosmos 2369 3.8 16:26:50 10° SSW 16:32:22 56° ESE 16:34:08 40° ENE
Cosmos 2344 3.7 16:24:43 10° WSW 16:32:24 83° SSE 16:37:34 30° ENE
CZ-4B R/B 4.1 16:30:43 10° N 16:33:03 18° NW 16:35:25 10° W
Cosmos 1656 Rocket 4.5 16:28:22 10° W 16:33:35 43° NNW 16:36:18 25° NNE
Cosmos 2346 Rocket 4.4 16:29:03 10° S 16:35:11 67° E 16:41:18 10° NNE
Cosmos 773 Rocket 4.2 16:30:01 10° SW 16:35:13 69° NW 16:38:19 25° NNE
SL-16 R/B 4.4 16:33:01 10° NNE 16:37:35 22° NNW 16:42:08 10° WNW
Cosmos 1697 Rocket 2.7 16:33:41 10° SSW 16:39:13 58° ESE 16:40:37 45° ENE
Cosmos 1346 Rocket 4.1 16:39:08 10° N 16:41:08 27° N 16:41:08 27° N
Cosmos 1302 Rocket 4.3 16:38:43 10° NW 16:43:52 46° NE 16:44:17 45° NE
SKYMED 2 3.4 16:45:27 68° E 16:45:31 68° ESE 16:49:52 10° S
Cosmos 1869 Rocket 3.3 16:42:05 10° NNW 16:46:26 73° ENE 16:46:35 72° E
Cosmos 332 Rocket 3.9 16:43:30 10° NNW 16:48:23 55° NE 16:48:32 55° NE
ARGOS 3.4 16:48:41 48° ENE 16:48:48 48° ENE 16:53:59 10° NNW
Cosmos 2360 4.3 16:43:32 10° SSW 16:49:01 50° ESE 16:49:20 49° ESE
USA 215 3.8 16:45:59 26° SE 16:49:32 49° SSW 16:55:52 10° W
Cosmos 2278 3.7 16:44:52 10° SSW 16:50:26 57° ESE 16:51:15 52° E
YAOGAN 6 4.1 16:48:25 10° SSW 16:51:40 35° W 16:54:57 10° NNW
Cosmos 1356 Rocket 4.3 16:48:25 10° SW 16:52:33 49° WNW 16:55:34 18° N
Cosmos 1656 3.5 16:47:06 10° SW 16:52:38 89° SE 16:54:25 45° NE
MOS 1 4.2 16:50:22 35° SE 16:52:52 74° ENE 16:58:32 10° NNW
NOSS 3-2 (C) 3.9 16:46:41 10° WNW 16:53:36 77° SSW 16:57:19 34° SE
SJ-11-01 4.2 16:54:40 66° ENE 16:54:40 66° ENE 16:59:18 10° NNW
Cosmos 923 Rocket 3.8 16:51:01 10° SSW 16:56:15 83° ESE 16:57:35 51° NE
Cosmos 1844 Rocket 2.5 16:53:11 10° NW 16:58:48 77° NE 16:59:52 59° ESE
Cosmos 44 3.5 16:57:07 10° WNW 17:01:27 54° SW 17:02:04 49° S
SPOT 3 Rocket 3.6 17:02:01 58° NE 17:02:01 58° NE 17:07:03 10° NNW
Cosmos 2278 Rocket 2.6 16:58:19 10° NW 17:03:50 46° NNE 17:04:14 46° NE
H-2A R/B 2.1 17:04:52 59° NE 17:04:52 59° NE 17:09:54 10° NNW
CZ-4 R/B 3.0 17:01:51 10° SSW 17:05:36 34° W 17:09:19 10° NNW
Terra 4.1 17:07:21 13° NNE 17:07:21 13° NNE 17:08:21 10° N
USA 229 DEB 3.6 17:01:30 10° SW 17:08:14 75° SSE 17:10:05 52° E
USA 229 3.6 17:01:37 10° SW 17:08:19 75° SSE 17:10:09 52° E
Cosmos 1867 3.6 17:02:49 10° WSW 17:08:20 77° NNW 17:09:14 61° NE
Cosmos 1939 Rocket 3.5 17:09:22 32° SSW 17:11:03 55° WSW 17:15:07 10° NNW
NOSS 3-1 (C) 3.5 17:05:23 10° SW 17:11:23 74° SSE 17:12:46 56° E
Lacrosse 4 Rocket 2.1 17:07:22 10° SW 17:10:14 44° SW 17:10:14 44° SW
NOSS 3-1 (A) 3.5 17:07:27 10° SW 17:13:22 63° SE 17:14:11 58° ESE
Cosmos 1634 Rocket 4.3 17:08:19 10° NNW 17:14:28 66° W 17:20:34 10° S
Cosmos 371 Rocket 3.3 17:14:46 10° NW 17:19:22 79° NNW 17:19:22 79° NNW
Meteor 1-5 Rocket 4.2 17:17:26 10° NNW 17:23:25 73° ENE 17:23:31 73° ENE
Cosmos 1110 Rocket 3.9 17:22:05 10° NW 17:27:18 80° WSW 17:27:25 79° SW
Resurs 01 Rocket 3.5 17:30:42 21° N 17:30:42 21° N 17:32:15 10° NNW
Cosmos 1844 3.6 17:23:30 10° NW 17:29:20 89° SW 17:29:39 81° SE
Cosmos 1151 Rocket 3.8 17:26:01 10° SW 17:30:18 52° WNW 17:30:55 48° NW
Cosmos 2279 Rocket 4.1 17:26:41 10° NNW 17:32:54 73° W 17:36:59 23° S
Cosmos 2369 Rocket 3.2 17:27:57 10° WNW 17:33:03 34° N 17:33:33 34° NNE
COSMO-SKYMED 1 3.2 17:33:59 54° W 17:33:59 54° W 17:37:47 10° SW
Tsikada Rocket 4.2 17:27:52 10° SSW 17:34:17 73° WNW 17:40:45 10° NNE
CENTAUR R/B 3.1 17:27:22 10° WNW 17:34:47 71° SSW 17:37:13 48° SSE
Cosmos 1331 Rocket 4.0 17:30:39 10° NW 17:35:39 76° W 17:35:39 76° W
CZ-2C R/B 3.8 17:39:33 40° N 17:39:33 40° N 17:42:44 10° NNW
Cosmos 2297 4.5 17:36:45 10° NW 17:41:51 41° N 17:41:51 41° N
Cosmos 1980 Rocket 2.5 17:39:29 10° SW 17:43:59 57° SSW 17:43:59 57° SSW
Cosmos 44 Rocket 3.9 17:42:02 10° WNW 17:45:43 51° W 17:45:43 51° W
Cosmos 1943 Rocket 3.2 17:43:24 10° WNW 17:48:34 35° N 17:48:34 35° N
ATLAS 3B R/B 2.7 17:50:00 10° WNW 17:56:35 66° SW 17:57:03 64° SSW
Cosmos 2263 Rocket 4.3 17:55:13 10° NW 17:59:29 23° WSW 18:03:44 10° SSW
Meteor 1-11 Rocket 4.0 17:54:54 10° NNW 18:00:01 69° NW 18:00:01 69° NW
Cosmos 1680 Rocket 4.3 18:07:01 10° WSW 18:11:29 48° WNW 18:11:29 48° WNW
Cosmos 2369 4.3 18:11:02 10° WSW 18:16:05 55° WNW 18:16:05 55° WNW
Cosmos 1697 Rocket 3.4 18:17:44 10° WSW 18:22:23 50° WNW 18:22:23 50° WNW
ARGOS 4.1 18:30:12 45° WNW 18:30:12 45° WNW 18:34:25 10° NNW
Terra 4.4 18:46:14 13° N 18:46:14 13° N 18:46:51 10° N
Cosmos 1844 Rocket 4.0 18:37:20 10° NW 18:41:32 34° W 18:41:32 34° W
H-2A R/B 3.5 18:45:30 35° WNW 18:45:30 35° WNW 18:49:23 10° NNW
Cosmos 2344 3.8 18:39:02 10° W 18:47:11 85° N 18:47:34 82° ENE
Cosmos 2278 Rocket 3.4 18:42:39 10° NW 18:46:05 38° NW 18:46:05 38° NW
USA 229 DEB 4.3 18:52:26 10° W 18:57:31 53° W 18:57:31 53° W
USA 229 4.3 18:52:32 10° W 18:57:35 53° W 18:57:35 53° W
NOSS 3-1 (C) 4.4 18:56:00 10° W 19:00:10 46° W 19:00:10 46° W
Cosmos 2369 Rocket 4.1 19:12:47 10° NW 19:15:20 26° NNW 19:15:20 26° NNW
CENTAUR R/B 4.1 19:18:03 10° WNW 19:24:25 35° WSW 19:24:25 35° WSW
Cosmos 1980 Rocket 4.4 19:24:12 10° W 19:25:47 19° W 19:25:47 19° W
Cosmos 1943 Rocket 4.2 19:27:48 10° NW 19:30:05 24° NW 19:30:05 24° NW
ATLAS 3B R/B 4.4 19:40:54 10° WNW 19:44:18 23° W 19:44:18 23° W
